This is the latest recevied weather packets stored in our database for station/object DG6YGE-6. If no packets are shown the sender has not sent any weather packets the latest 10 day(s).
| Time | Temp. | Humidity | Pressure | Rain* | Wind** | Luminosity | Snow |
|---|---|---|---|---|---|---|---|
| 1788448151 | 21.11° C | 81% | 1014.1 hPa | 0 mm | - | 174 W/m² | - |
| 1788447551 | 21.11° C | 81% | 1014.1 hPa | 0 mm | - | 120 W/m² | - |
| 1788446951 | 21.11° C | 81% | 1014.1 hPa | 0 mm | - | 160 W/m² | - |
| 1788446351 | 21.11° C | 81% | 1014.1 hPa | 0 mm | - | 286 W/m² | - |
| 1788445751 | 21.11° C | 82% | 1014 hPa | 0 mm | - | 317 W/m² | - |
| 1788445151 | 20.56° C | 82% | 1014.2 hPa | 0 mm | - | 200 W/m² | - |
| 1788444551 | 20.56° C | 83% | 1014 hPa | 0 mm | - | 208 W/m² | - |
| 1788443951 | 20.56° C | 82% | 1014.1 hPa | 0 mm | - | 225 W/m² | - |
| 1788443351 | 20.56° C | 82% | 1014.3 hPa | 0 mm | - | 367 W/m² | - |
| 1788442751 | 20° C | 83% | 1014.2 hPa | 0 mm | - | 262 W/m² | - |
| 1788442151 | 20° C | 84% | 1014.1 hPa | 0 mm | - | 375 W/m² | - |
| 1788441551 | 20° C | 85% | 1014.3 hPa | 0 mm | - | 359 W/m² | - |
| 1788440951 | 19.44° C | 86% | 1014.3 hPa | 0 mm | - | 517 W/m² | - |
| 1788440351 | 18.89° C | 87% | 1014.3 hPa | 0 mm | - | 313 W/m² | - |
| 1788439751 | 18.33° C | 88% | 1014.4 hPa | 0 mm | - | 209 W/m² | - |
| 1788439150 | 18.33° C | 90% | 1014.4 hPa | 0 mm | - | 165 W/m² | - |
| 1788438551 | 17.78° C | 90% | 1014.4 hPa | 0 mm | - | 137 W/m² | - |
| 1788437951 | 17.78° C | 91% | 1014.4 hPa | 0 mm | - | 194 W/m² | - |
| 1788437351 | 17.78° C | 91% | 1014.3 hPa | 0 mm | - | 112 W/m² | - |
| 1788436751 | 17.78° C | 90% | 1014.3 hPa | 0 mm | - | 104 W/m² | - |
| 1788436151 | 17.78° C | 89% | 1014.3 hPa | 0 mm | - | 72 W/m² | - |
| 1788435551 | 17.78° C | 89% | 1014.6 hPa | 0 mm | - | 54 W/m² | - |
| 1788434951 | 17.78° C | 88% | 1014.3 hPa | 0 mm | - | 91 W/m² | - |
| 1788434351 | 17.78° C | 88% | 1014.4 hPa | 0 mm | - | 140 W/m² | - |
| 1788433751 | 17.78° C | 87% | 1014.4 hPa | 0 mm | - | 91 W/m² | - |
* Rain latest hour (hover to see other rain measurements)
** Current wind speed in m/s (hover to see current wind gust speed)